Lumberton, NC

12:45 PM EST on January 19, 2018 (GMT -0500)
Lumberton Municipal

Weather History for KLBT - September, 2013

Change the Weather History Date:

Sunday, September 22, 2013

  Actual Average Record
Temperature  
Mean Temperature 71 °F 71 °F  
Max Temperature 78 °F 82 °F 92 °F (2010)
Min Temperature 63 °F 60 °F 48 °F (1999)
Degree Days  
Heating Degree Days 0 0  
Month to date heating degree days 0 0  
Since 1 July heating degree days 0 0  
Cooling Degree Days 6 7  
Month to date cooling degree days 241 203  
Year to date cooling degree days 1752 1775  
Growing Degree Days 20 (Base 50)    
Moisture  
Dew Point 67 °F    
Average Humidity 77    
Maximum Humidity 93    
Minimum Humidity 60    
Precipitation  
Precipitation T in 0.15 in 1.11 in (2000)
Month to date precipitation 0.89 3.55  
Year to date precipitation 36.87 33.94  
Sea Level Pressure  
Sea Level Pressure 29.72 in    
Wind  
Wind Speed 7 mph (NNW)    
Max Wind Speed 17 mph    
Max Gust Speed 23 mph    
Visibility 7 miles    
Events Rain    
T = Trace of Precipitation, MM = Missing Value Source: NWS Daily Summary

Daily Weather History Graph

Daily Weather History Graph

Search for Another Location

Airport or City:

Trip Planner

Search our weather history database for the weather conditions in past years. The results will help you decide how hot, cold, wet, or windy it might be!

Date:

Astronomy

Sep. 22, 2013 Rise Set
Actual Time 7:04 AM EDT 7:12 PM EDT
Civil Twilight 6:39 AM EDT 7:37 PM EDT
Nautical Twilight 6:09 AM EDT 8:07 PM EDT
Astronomical Twilight 5:40 AM EDT 8:36 PM EDT
Moon 9:11 PM EDT (9/22) 10:13 AM EDT (9/22)
Length of Visible Light 12h 58m
Length of Day
12h 08m
Waning Gibbous, 89% of the Moon is Illuminated
Sep 22
Waning Gibbous
Sep 26
Last Quarter
Oct 4
New
Oct 11
First Quarter
Oct 18
Full

Hourly Weather History & Observations

Time (EDT) Temp. Dew Point Humidity Pressure Visibility Wind Dir Wind Speed Gust Speed Precip Events Conditions
12:54 AM 73.0 °F 70.0 °F 90% 29.70 in 10.0 mi SSE 6.9 mph - N/A   Overcast
1:54 AM 72.0 °F 71.1 °F 97% 29.70 in 4.0 mi SSW 5.8 mph - 0.00 in Rain Light Rain
2:11 AM 71.6 °F 71.6 °F 100% 29.69 in 1.8 mi Calm Calm - N/A Rain Heavy Rain
2:13 AM 71.6 °F 71.6 °F 100% 29.69 in 1.8 mi Calm Calm - N/A Rain Heavy Rain
2:22 AM 71.6 °F 71.6 °F 100% 29.69 in 3.0 mi Calm Calm - N/A Rain Light Rain
2:29 AM 71.6 °F 71.6 °F 100% 29.68 in 3.0 mi Variable 4.6 mph - N/A Rain Heavy Rain
2:37 AM 71.6 °F 69.8 °F 94% 29.67 in 3.0 mi SSE 6.9 mph - N/A Rain Rain
2:51 AM 71.6 °F 69.8 °F 94% 29.67 in 10.0 mi South 9.2 mph - N/A   Overcast
2:54 AM 72.0 °F 70.0 °F 93% 29.66 in 10.0 mi South 9.2 mph - N/A   Overcast
3:10 AM 71.6 °F 69.8 °F 94% 29.65 in 10.0 mi South 5.8 mph - N/A   Overcast
3:43 AM 71.6 °F 69.8 °F 94% 29.64 in 10.0 mi SSE 3.5 mph - N/A   Overcast
3:54 AM 72.0 °F 70.0 °F 93% 29.64 in 10.0 mi South 4.6 mph - N/A   Overcast
4:05 AM 71.6 °F 71.6 °F 100% 29.64 in 6.0 mi Calm Calm - N/A Rain Light Rain
4:36 AM 71.6 °F 69.8 °F 94% 29.64 in 10.0 mi SW 6.9 mph - N/A   Overcast
4:54 AM 72.0 °F 70.0 °F 93% 29.64 in 10.0 mi SSW 4.6 mph - N/A   Mostly Cloudy
5:13 AM 71.6 °F 69.8 °F 94% 29.64 in 10.0 mi SSW 3.5 mph - N/A   Mostly Cloudy
5:47 AM 71.6 °F 69.8 °F 94% 29.64 in 10.0 mi South 3.5 mph - N/A   Overcast
5:54 AM 72.0 °F 70.0 °F 93% 29.64 in 10.0 mi South 10.4 mph 16.1 mph N/A   Overcast
6:23 AM 69.8 °F 68.0 °F 94% 29.65 in 10.0 mi WSW 5.8 mph - N/A   Overcast
6:54 AM 69.1 °F 68.0 °F 96% 29.66 in 8.0 mi West 6.9 mph - N/A Rain Light Rain
7:06 AM 68.0 °F 66.2 °F 94% 29.67 in 3.0 mi NNW 9.2 mph - N/A Rain Light Rain
7:31 AM 66.2 °F 66.2 °F 100% 29.68 in 2.5 mi North 10.4 mph - N/A Rain Light Rain
7:35 AM 66.2 °F 66.2 °F 100% 29.69 in 1.5 mi North 6.9 mph - N/A Rain Rain
7:54 AM 66.9 °F 64.9 °F 93% 29.70 in 1.5 mi North 9.2 mph - N/A Rain Light Rain
7:57 AM 66.2 °F 64.4 °F 94% 29.70 in 2.0 mi NNW 10.4 mph - N/A Rain Light Rain
8:26 AM 66.2 °F 64.4 °F 94% 29.71 in 3.0 mi North 9.2 mph - N/A Rain Light Rain
8:33 AM 66.2 °F 64.4 °F 94% 29.71 in 2.0 mi North 10.4 mph - N/A Rain Light Rain
8:44 AM 66.2 °F 64.4 °F 94% 29.72 in 3.0 mi North 9.2 mph - N/A   Overcast
8:54 AM 66.0 °F 64.0 °F 93% 29.73 in 3.0 mi North 10.4 mph - N/A   Overcast
9:54 AM 66.9 °F 64.9 °F 93% 29.75 in 10.0 mi North 8.1 mph - N/A   Overcast
10:23 AM 68.0 °F 64.4 °F 88% 29.76 in 6.0 mi North 8.1 mph - N/A   Overcast
10:54 AM 69.1 °F 66.0 °F 90% 29.76 in 10.0 mi North 10.4 mph - N/A   Overcast
11:31 AM 69.8 °F 64.4 °F 83% 29.76 in 10.0 mi North 10.4 mph 18.4 mph N/A   Overcast
11:54 AM 71.1 °F 64.9 °F 81% 29.76 in 10.0 mi North 12.7 mph - N/A   Overcast
12:54 PM 73.0 °F 63.0 °F 71% 29.77 in 10.0 mi NNE 15.0 mph - N/A   Overcast
1:54 PM 75.0 °F 63.0 °F 66% 29.77 in 10.0 mi North 11.5 mph - N/A   Overcast
2:02 PM 75.2 °F 62.6 °F 65% 29.77 in 10.0 mi NNE 12.7 mph - N/A   Overcast
2:54 PM 77.0 °F 63.0 °F 62% 29.75 in 10.0 mi NE 13.8 mph - N/A   Overcast
3:54 PM 75.9 °F 63.0 °F 64% 29.76 in 10.0 mi NNW 9.2 mph - N/A   Overcast
4:54 PM 75.9 °F 62.1 °F 62% 29.77 in 10.0 mi NNW 8.1 mph - N/A   Overcast
5:54 PM 75.0 °F 62.1 °F 64% 29.79 in 10.0 mi North 4.6 mph - N/A   Overcast
6:54 PM 73.9 °F 63.0 °F 68% 29.79 in 10.0 mi North 3.5 mph - N/A   Overcast
7:54 PM 69.1 °F 64.0 °F 84% 29.81 in 10.0 mi Calm Calm - N/A   Scattered Clouds
8:54 PM 66.0 °F 64.0 °F 93% 29.83 in 8.0 mi Calm Calm - N/A   Mostly Cloudy
9:54 PM 66.0 °F 64.0 °F 93% 29.86 in 8.0 mi Calm Calm - N/A   Overcast
10:54 PM 64.9 °F 63.0 °F 93% 29.87 in 7.0 mi Calm Calm - N/A   Scattered Clouds
11:54 PM 64.0 °F 61.0 °F 90% 29.88 in 10.0 mi Calm Calm - N/A   Mostly Cloudy